Location: Ajisawe
(8.4333°N, 4.3833°E)
Time: 01:48:38
(UTC+00:00)

Courier 1B Rocket - Pass Details

Date: 30 April 2021
Orbit: 920 x 1202 km, 28.3° (Epoch: 13 May)

Event Time Altitude Azimuth Distance (km) Brightness Sun altitude
Rises 23:50:56 0° 273° (W) 3,817 - -66.3°
Reaches altitude 10° 23:54:10 10° 260° (W) 2,913 - -66.2°
Maximum altitude 23:59:43 24° 209° (SSW) 2,141 - -66.0°
Drops below altitude 10° 00:05:33 10° 158° (SSE) 3,061 - -65.6°
Sets 00:09:05 0° 145° (SE) 4,056 - -65.4°
